Regional Weather Roundup
Issued by NWS

Home | Current Version | Previous Version | Graphics & Text | Print | Product List | Glossary On
Versions: 1 2 3 4 5 6 7 8 9 10 11 12 13 14 15 16 17 18 19 20 21 22 23 24 25 26 27 28 29 30 31 32 33 34 35 36 37 38 39 40 41 42 43 44 45 46 47 48 49 50
000
ASUS43 KMKX 261611
RWRWI

WISCONSIN REGIONAL WEATHER ROUNDUP
NATIONAL WEATHER SERVICE MILWAUKEE/SULLIVAN WI
1000 AM CST SUN FEB 26 2017

NOTE: "FAIR" INDICATES FEW OR NO CLOUDS BELOW 12,000 FEET WITH NO
SIGNIFICANT WEATHER AND/OR OBSTRUCTIONS TO VISIBILITY.

WIZ001-002-006>008-014>016-023>028-261700-
NORTHWEST WISCONSIN

CITY           SKY/WX    TMP DP  RH WIND       PRES   REMARKS
SUPERIOR ARPT  LGT SNOW  28  25  88 W10       29.67S WCI  19
ASHLAND        CLOUDY    28  21  75 SW13      29.67S WCI  17
HAYWARD        LGT SNOW  27  22  81 SW8       29.68S WCI  19
SIREN          CLOUDY    29  22  75 W13       29.71R WCI  19
CUMBERLAND     PTSUNNY   28  21  74 SW14      29.71R WCI  17
RICE LAKE      PTSUNNY   28  22  76 SW12G17   29.74S WCI  18
CHETEK         CLOUDY    27  20  75 SW10      29.74R WCI  18
LADYSMITH      CLOUDY    28  20  74 SW10      29.73S WCI  18
EAU CLAIRE     PTSUNNY   27  19  72 SW13      29.77R WCI  16
MENOMONIE      PTSUNNY   29  19  67 SW9       29.78R WCI  20
NEW RICHMOND   CLOUDY    29  21  72 SW10      29.75S WCI  19
OSCEOLA        MOSUNNY   32  23  70 SW10      29.77S WCI  24
$$

WIZ003>005-009-010-017-018-261700-
NORTH CENTRAL WISCONSIN

CITY           SKY/WX    TMP DP  RH WIND       PRES   REMARKS
MANITOWISH WTR LGT SNOW  23  20  90 SW8       29.65F WCI  14
ARBOR VITAE    CLOUDY    24  19  81 SW6         N/A  WCI  17
WOODRUFF       CLOUDY    24  19  81 SW6         N/A  WCI  17
RHINELANDER    CLOUDY    25  18  74 SW9       29.69S WCI  15
EAGLE RIVER    FLURRIES  23  17  77 SW9       29.67S WCI  13
LAND O LAKES   CLOUDY    24  19  83 SW7       29.67F WCI  16
PHILLIPS       CLOUDY    24  19  80 SW9       29.68S WCI  14
TOMAHAWK       CLOUDY    26  18  72 W5        29.71R WCI  20
MEDFORD        MOSUNNY   25  17  69 SW14G20   29.71S WCI  14
MERRILL        NOT AVBL
$$

WIZ029-030-035-036-043>047-261700-
CENTRAL WISCONSIN

CITY           SKY/WX    TMP DP  RH WIND       PRES   REMARKS
WAUSAU         SUNNY     27  18  69 SW13G21   29.73R WCI  16
MOSINEE        MOSUNNY   27  19  74 SW15G21   29.75S WCI  15
MARSHFIELD     MOSUNNY   28  18  66 W16       29.73R WCI  16
STEVENS POINT  MOSUNNY   28  18  64 SW16      29.76S WCI  16
WAUPACA        SUNNY     33  20  60 SW10      29.80S WCI  24
WAUTOMA        SUNNY     33  21  61 SW12G21   29.80F WCI  24
WISC RAPIDS    SUNNY     30  20  66 SW12      29.78S WCI  20
CAMP DOUGLAS   MOSUNNY   32  19  59 SW12      29.79S WCI  23
$$

WIZ011>013-019>022-031-037>040-048>050-261700-
NORTHEAST WISCONSIN

CITY           SKY/WX    TMP DP  RH WIND       PRES   REMARKS
ANTIGO         CLOUDY    26  18  71 SW16      29.72R WCI  13
SHAWANO        CLOUDY    31  20  62 SW10G17   29.78F WCI  23
OCONTO         MOSUNNY   30  18  60 SW16G23   29.79F WCI  19
STURGEON BAY   CLOUDY    29  19  66 S16G23    29.80F WCI  17
GREEN BAY      PTSUNNY   30  22  72 SW16G25   29.80F WCI  19
MANITOWOC      LGT SNOW  28  23  80 SW12      29.84F WCI  18
APPLETON       PTSUNNY   28  19  69 SW17      29.78F WCI  16
CLINTONVILLE   CLOUDY    30  19  64 SW16G24   29.78F WCI  19
OSHKOSH        CLOUDY    30  20  66 SW16G25   29.81F WCI  19
$$

WIZ032>034-041-042-053>061-261700-
SOUTHWEST WISCONSIN

CITY           SKY/WX    TMP DP  RH WIND       PRES   REMARKS
LA CROSSE      SUNNY     34  21  59 SW10      29.82R WCI  26
SPARTA         SUNNY     34  22  61 SW8       29.81R WCI  27
VIROQUA        SUNNY     32  22  66 SW14      29.81R WCI  22
BOSCOBEL       SUNNY     35  22  58 SW15G22   29.86S WCI  25
PRAIRIE DU CHI SUNNY     33  22  61 W6        29.87R WCI  28
PLATTEVILLE    SUNNY     34  25  71 SW17G23   29.88R WCI  23
$$

WIZ056-057-062-063-064-067-068-261700-
SOUTH CENTRAL WISCONSIN

CITY           SKY/WX    TMP DP  RH WIND       PRES   REMARKS
REEDSBURG      SUNNY     32  21  63 SW17G23   29.82S WCI  21
BARABOO/DELLS  SUNNY     32  20  63 SW18      29.80F WCI  20
LONE ROCK      MOSUNNY   33  21  61 W14       29.86R WCI  23
MINERAL POINT  PTSUNNY   34  27  75 SW7       29.85S WCI  28
MADISON        PTSUNNY   33  20  58 SW14G20   29.85S WCI  23
MIDDLETON      SUNNY     34  24  65 SW12      29.85F WCI  26
WATERTOWN      PTSUNNY   33  22  64 SW20      29.86S WCI  21
MONROE         SUNNY     34  21  60 SW23G32   29.87R WCI  22
JANESVILLE     MOSUNNY   36  21  55 SW18G25   29.89F WCI  25
$$

WIZ051-052-058>065-066-070>072-261700-
SOUTHEAST WISCONSIN

CITY           SKY/WX    TMP DP  RH WIND       PRES   REMARKS
MILWAUKEE      CLOUDY    35  19  52 SW16G30   29.89F WCI  25
WAUKESHA       MOSUNNY   30  18  59 SW15G29   29.89F WCI  19
MILWAUKEE/TIMM PTSUNNY   34  16  47 SW20G25   29.89S WCI  22
RACINE         CLOUDY    35  18  49 SW20G30   29.92F WCI  24
KENOSHA        CLOUDY    35  18  49 SW22      29.91F WCI  23
FOND DU LAC    MIX PCPN  31  19  61 SW18G24   29.82F WCI  19
SHEBOYGAN      CLOUDY    30  21  69 SW15      29.85F WCI  19
WEST BEND      CLOUDY    32  23  69 SW13      29.84F WCI  22
JUNEAU         PTSUNNY   31  22  69 S12       29.86S WCI  22
$$

LSZ147-162-261700-
LAKE SUPERIOR

STATION/POSITION TIME  TEMP    WIND        PRES    WAVE
                       AIR SEA DIR/SP/G            HT/PER
                 (UTC) (F)     (DEG/KT/KT) (MB)    (FT/S)
DEVILS ISLAND    1600   28     220/ 16/ 20 1004.8F
PORT WING        1540   28     200/  8/ 13 1004.7S
SAXON HARBOR     1540   27     200/  9/ 16 1005.1S
$$

LMZ867-665-643>646-261700-
LAKE MICHIGAN

STATION/POSITION TIME  TEMP    WIND        PRES    WAVE
                       AIR SEA DIR/SP/G            HT/PER
                 (UTC) (F)     (DEG/KT/KT) (MB)    (FT/S)
NORTHPORT PIER   1521   29      CALM  /  2 1009.1F
SISTER BAY       1535   32        CALM       N/A
KEWAUNEE LAKESHO 1548   30     210/ 11/ 19 1009.8F
SHEBOYGAN LAKESH 1600   31     210/ 14/ 16 1011.7F
PORT WASHINGTON  1530   33     220/  8/ 13 1012.9F
MILWAUKEE LAKESH 1550   34     210/ 22/ 25   N/A
KENOSHA   LAKESH 1600   35     210/ 16/ 26 1013.2
$$

TC  - TEMPERATURE IN CELSIUS
VSB - VISIBILITY IN STATUTE MILES
WCI - WIND CHILL INDEX
HX  - HEAT INDEX





USA.gov is the U.S. government's official web portal to all federal, state and local government web resources and services.